Year,Month,Day,Hour,Minute,Value (Times are PST for temperature in C)
2012,08,12,00,00,16.70
2012,08,12,00,01,16.70
2012,08,12,00,02,16.70
2012,08,12,00,03,16.70
2012,08,12,00,04,16.70
2012,08,12,00,05,16.70
2012,08,12,00,06,16.70
2012,08,12,00,07,16.70
2012,08,12,00,08,16.70
2012,08,12,00,09,16.70
2012,08,12,00,10,16.70
2012,08,12,00,11,16.70
2012,08,12,00,12,16.70
2012,08,12,00,13,16.70
2012,08,12,00,14,16.70
2012,08,12,00,15,16.70
2012,08,12,00,16,16.80
2012,08,12,00,17,16.80
2012,08,12,00,18,16.90
2012,08,12,00,19,16.90
2012,08,12,00,20,17.00
2012,08,12,00,21,17.00
2012,08,12,00,22,17.10
2012,08,12,00,23,17.10
2012,08,12,00,24,17.10
2012,08,12,00,25,17.00
2012,08,12,00,26,17.00
2012,08,12,00,27,16.90
2012,08,12,00,28,16.80
2012,08,12,00,29,16.70
2012,08,12,00,30,16.60
2012,08,12,00,31,16.50
2012,08,12,00,32,16.40
2012,08,12,00,33,16.30
2012,08,12,00,34,16.20
2012,08,12,00,35,16.10
2012,08,12,00,36,16.10
2012,08,12,00,37,15.90
2012,08,12,00,38,15.80
2012,08,12,00,39,15.80
2012,08,12,00,40,15.70
2012,08,12,00,41,15.60
2012,08,12,00,42,15.60
2012,08,12,00,43,15.50
2012,08,12,00,44,15.50
2012,08,12,00,45,15.50
2012,08,12,00,46,15.50
2012,08,12,00,47,15.50
2012,08,12,00,48,15.50
2012,08,12,00,49,15.40
2012,08,12,00,50,15.50
2012,08,12,00,51,15.50
2012,08,12,00,52,15.50
2012,08,12,00,53,15.50
2012,08,12,00,54,15.50
2012,08,12,00,55,15.50
2012,08,12,00,56,15.50
2012,08,12,00,57,15.60
2012,08,12,00,58,15.60
2012,08,12,00,59,15.60
2012,08,12,01,00,15.60
2012,08,12,01,01,15.60
2012,08,12,01,02,15.60
2012,08,12,01,03,15.70
2012,08,12,01,04,15.70
2012,08,12,01,05,15.80
2012,08,12,01,06,15.80
2012,08,12,01,07,15.70
2012,08,12,01,08,15.60
2012,08,12,01,09,15.40
2012,08,12,01,10,15.30
2012,08,12,01,11,15.20
2012,08,12,01,12,15.00
2012,08,12,01,13,14.90
2012,08,12,01,14,14.80
2012,08,12,01,15,14.80
2012,08,12,01,16,14.70
2012,08,12,01,17,14.70
2012,08,12,01,18,14.60
2012,08,12,01,19,14.60
2012,08,12,01,20,14.50
2012,08,12,01,21,14.50
2012,08,12,01,22,14.40
2012,08,12,01,23,14.40
2012,08,12,01,24,14.30
2012,08,12,01,25,14.20
2012,08,12,01,26,14.20
2012,08,12,01,27,14.20
2012,08,12,01,28,14.20
2012,08,12,01,29,14.10
2012,08,12,01,30,14.10
2012,08,12,01,31,14.00
2012,08,12,01,32,14.00
2012,08,12,01,33,14.00
2012,08,12,01,34,13.90
2012,08,12,01,35,13.90
2012,08,12,01,36,13.90
2012,08,12,01,37,13.80
2012,08,12,01,38,13.80
2012,08,12,01,39,13.80
2012,08,12,01,40,13.70
2012,08,12,01,41,13.70
2012,08,12,01,42,13.70
2012,08,12,01,43,13.70
2012,08,12,01,44,13.70
2012,08,12,01,45,13.70
2012,08,12,01,46,13.70
2012,08,12,01,47,13.70
2012,08,12,01,48,13.60
2012,08,12,01,49,13.60
2012,08,12,01,50,13.60
2012,08,12,01,51,13.60
2012,08,12,01,52,13.50
2012,08,12,01,53,13.50
2012,08,12,01,54,13.50
2012,08,12,01,55,13.50
2012,08,12,01,56,13.50
2012,08,12,01,57,13.40
2012,08,12,01,58,13.40
2012,08,12,01,59,13.40
2012,08,12,02,00,13.40
2012,08,12,02,01,13.40
2012,08,12,02,02,13.40
2012,08,12,02,03,13.40
2012,08,12,02,04,13.30
2012,08,12,02,05,13.30
2012,08,12,02,06,13.30
2012,08,12,02,07,13.30
2012,08,12,02,08,13.30
2012,08,12,02,09,13.30
2012,08,12,02,10,13.30
2012,08,12,02,11,13.30
2012,08,12,02,12,13.30
2012,08,12,02,13,13.30
2012,08,12,02,14,13.40
2012,08,12,02,15,13.40
2012,08,12,02,16,13.40
2012,08,12,02,17,13.40
2012,08,12,02,18,13.40
2012,08,12,02,19,13.50
2012,08,12,02,20,13.50
2012,08,12,02,21,13.50
2012,08,12,02,22,13.50
2012,08,12,02,23,13.50
2012,08,12,02,24,13.50
2012,08,12,02,25,13.50
2012,08,12,02,26,13.50
2012,08,12,02,27,13.50
2012,08,12,02,28,13.50
2012,08,12,02,29,13.50
2012,08,12,02,30,13.50
2012,08,12,02,31,13.50
2012,08,12,02,32,13.50
2012,08,12,02,33,13.60
2012,08,12,02,34,13.60
2012,08,12,02,35,13.60
2012,08,12,02,36,13.60
2012,08,12,02,37,13.60
2012,08,12,02,38,13.60
2012,08,12,02,39,13.60
2012,08,12,02,40,13.70
2012,08,12,02,41,13.70
2012,08,12,02,42,13.70
2012,08,12,02,43,13.70
2012,08,12,02,44,13.70
2012,08,12,02,45,13.70
2012,08,12,02,46,13.70
2012,08,12,02,47,13.70
2012,08,12,02,48,13.70
2012,08,12,02,49,13.70
2012,08,12,02,50,13.80
2012,08,12,02,51,13.80
2012,08,12,02,52,13.80
2012,08,12,02,53,13.80
2012,08,12,02,54,13.80
2012,08,12,02,55,13.90
2012,08,12,02,56,13.90
2012,08,12,02,57,13.90
2012,08,12,02,58,13.90
2012,08,12,02,59,13.90
2012,08,12,03,00,14.00
2012,08,12,03,01,14.00
2012,08,12,03,02,14.00
2012,08,12,03,03,14.00
2012,08,12,03,04,14.00
2012,08,12,03,05,14.00
2012,08,12,03,06,14.00
2012,08,12,03,07,14.00
2012,08,12,03,08,14.00
2012,08,12,03,09,14.00
2012,08,12,03,10,14.00
2012,08,12,03,11,14.10
2012,08,12,03,12,14.10
2012,08,12,03,13,14.10
2012,08,12,03,14,14.10
2012,08,12,03,15,14.10
2012,08,12,03,16,14.10
2012,08,12,03,17,14.10
2012,08,12,03,18,14.10
2012,08,12,03,19,14.20
2012,08,12,03,20,14.20
2012,08,12,03,21,14.20
2012,08,12,03,22,14.20
2012,08,12,03,23,14.20
2012,08,12,03,24,14.20
2012,08,12,03,25,14.20
2012,08,12,03,26,14.20
2012,08,12,03,27,14.20
2012,08,12,03,28,14.20
2012,08,12,03,29,14.20
2012,08,12,03,30,14.30
2012,08,12,03,31,14.30
2012,08,12,03,32,14.30
2012,08,12,03,33,14.30
2012,08,12,03,34,14.30
2012,08,12,03,35,14.30
2012,08,12,03,36,14.40
2012,08,12,03,37,14.40
2012,08,12,03,38,14.40
2012,08,12,03,39,14.50
2012,08,12,03,40,14.50
2012,08,12,03,41,14.50
2012,08,12,03,42,14.50
2012,08,12,03,43,14.60
2012,08,12,03,44,14.60
2012,08,12,03,45,14.60
2012,08,12,03,46,14.60
2012,08,12,03,47,14.60
2012,08,12,03,48,14.60
2012,08,12,03,49,14.60
2012,08,12,03,50,14.60
2012,08,12,03,51,14.60
2012,08,12,03,52,14.60
2012,08,12,03,53,14.60
2012,08,12,03,54,14.60
2012,08,12,03,55,14.50
2012,08,12,03,56,14.50
2012,08,12,03,57,14.50
2012,08,12,03,58,14.50
2012,08,12,03,59,14.40
2012,08,12,04,00,14.40
2012,08,12,04,01,14.40
2012,08,12,04,02,14.40
2012,08,12,04,03,14.30
2012,08,12,04,04,14.30
2012,08,12,04,05,14.30
2012,08,12,04,06,14.20
2012,08,12,04,07,14.20
2012,08,12,04,08,14.20
2012,08,12,04,09,14.20
2012,08,12,04,10,14.20
2012,08,12,04,11,14.20
2012,08,12,04,12,14.20
2012,08,12,04,13,14.10
2012,08,12,04,14,14.10
2012,08,12,04,15,14.10
2012,08,12,04,16,14.10
2012,08,12,04,17,14.00
2012,08,12,04,18,14.00
2012,08,12,04,19,14.00
2012,08,12,04,20,14.00
2012,08,12,04,21,14.00
2012,08,12,04,22,14.00
2012,08,12,04,23,13.90
2012,08,12,04,24,13.90
2012,08,12,04,25,13.90
2012,08,12,04,26,13.90
2012,08,12,04,27,13.90
2012,08,12,04,28,13.90
2012,08,12,04,29,14.00
2012,08,12,04,30,14.00
2012,08,12,04,31,14.00
2012,08,12,04,32,14.00
2012,08,12,04,33,14.00
2012,08,12,04,34,14.00
2012,08,12,04,35,14.00
2012,08,12,04,36,14.00
2012,08,12,04,37,14.00
2012,08,12,04,38,14.00
2012,08,12,04,39,14.00
2012,08,12,04,40,13.90
2012,08,12,04,41,13.90
2012,08,12,04,42,13.90
2012,08,12,04,43,13.90
2012,08,12,04,44,13.90
2012,08,12,04,45,13.90
2012,08,12,04,46,13.90
2012,08,12,04,47,13.90
2012,08,12,04,48,13.90
2012,08,12,04,49,13.80
2012,08,12,04,50,13.80
2012,08,12,04,51,13.80
2012,08,12,04,52,13.80
2012,08,12,04,53,13.80
2012,08,12,04,54,13.80
2012,08,12,04,55,13.80
2012,08,12,04,56,13.80
2012,08,12,04,57,13.80
2012,08,12,04,58,13.70
2012,08,12,04,59,13.70
2012,08,12,05,00,13.70
2012,08,12,05,01,13.70
2012,08,12,05,02,13.70
2012,08,12,05,03,13.70
2012,08,12,05,04,13.70
2012,08,12,05,05,13.70
2012,08,12,05,06,13.70
2012,08,12,05,07,13.70
2012,08,12,05,08,13.70
2012,08,12,05,09,13.70
2012,08,12,05,10,13.70
2012,08,12,05,11,13.60
2012,08,12,05,12,13.60
2012,08,12,05,13,13.60
2012,08,12,05,14,13.60
2012,08,12,05,15,13.70
2012,08,12,05,16,13.70
2012,08,12,05,17,13.70
2012,08,12,05,18,13.70
2012,08,12,05,19,13.60
2012,08,12,05,20,13.60
2012,08,12,05,21,13.60
2012,08,12,05,22,13.50
2012,08,12,05,23,13.50
2012,08,12,05,24,13.50
2012,08,12,05,25,13.40
2012,08,12,05,26,13.40
2012,08,12,05,27,13.40
2012,08,12,05,28,13.40
2012,08,12,05,29,13.40
2012,08,12,05,30,13.40
2012,08,12,05,31,13.30
2012,08,12,05,32,13.30
2012,08,12,05,33,13.30
2012,08,12,05,34,13.30
2012,08,12,05,35,13.30
2012,08,12,05,36,13.30
2012,08,12,05,37,13.30
2012,08,12,05,38,13.30
2012,08,12,05,39,13.30
2012,08,12,05,40,13.30
2012,08,12,05,41,13.30
2012,08,12,05,42,13.30
2012,08,12,05,43,13.30
2012,08,12,05,44,13.30
2012,08,12,05,45,13.30
2012,08,12,05,46,13.30
2012,08,12,05,47,13.30
2012,08,12,05,48,13.30
2012,08,12,05,49,13.40
2012,08,12,05,50,13.40
2012,08,12,05,51,13.40
2012,08,12,05,52,13.40
2012,08,12,05,53,13.50
2012,08,12,05,54,13.50
2012,08,12,05,55,13.50
2012,08,12,05,56,13.50
2012,08,12,05,57,13.50
2012,08,12,05,58,13.50
2012,08,12,05,59,13.60
2012,08,12,06,00,13.70
2012,08,12,06,01,13.70
2012,08,12,06,02,13.70
2012,08,12,06,03,13.80
2012,08,12,06,04,13.90
2012,08,12,06,05,13.90
2012,08,12,06,06,14.00
2012,08,12,06,07,14.00
2012,08,12,06,08,14.10
2012,08,12,06,09,14.20
2012,08,12,06,10,14.20
2012,08,12,06,11,14.20
2012,08,12,06,12,14.20
2012,08,12,06,13,14.20
2012,08,12,06,14,14.20
2012,08,12,06,15,14.20
2012,08,12,06,16,14.10
2012,08,12,06,17,14.10
2012,08,12,06,18,14.00
2012,08,12,06,19,14.00
2012,08,12,06,20,14.00
2012,08,12,06,21,13.90
2012,08,12,06,22,13.90
2012,08,12,06,23,13.90
2012,08,12,06,24,13.80
2012,08,12,06,25,13.80
2012,08,12,06,26,13.70
2012,08,12,06,27,13.70
2012,08,12,06,28,13.70
2012,08,12,06,29,13.60
2012,08,12,06,30,13.60
2012,08,12,06,31,13.60
2012,08,12,06,32,13.60
2012,08,12,06,33,13.60
2012,08,12,06,34,13.60
2012,08,12,06,35,13.60
2012,08,12,06,36,13.60
2012,08,12,06,37,13.60
2012,08,12,06,38,13.70
2012,08,12,06,39,13.70
2012,08,12,06,40,13.70
2012,08,12,06,41,13.70
2012,08,12,06,42,13.70
2012,08,12,06,43,13.70
2012,08,12,06,44,13.70
2012,08,12,06,45,13.70
2012,08,12,06,46,13.70
2012,08,12,06,47,13.70
2012,08,12,06,48,13.70
2012,08,12,06,49,13.70
2012,08,12,06,50,13.70
2012,08,12,06,51,13.70
2012,08,12,06,52,13.70
2012,08,12,06,53,13.70
2012,08,12,06,54,13.80
2012,08,12,06,55,13.80
2012,08,12,06,56,13.80
2012,08,12,06,57,13.90
2012,08,12,06,58,13.90
2012,08,12,06,59,13.90
2012,08,12,07,00,14.00
2012,08,12,07,01,14.00
2012,08,12,07,02,14.10
2012,08,12,07,03,14.20
2012,08,12,07,04,14.20
2012,08,12,07,05,14.20
2012,08,12,07,06,14.30
2012,08,12,07,07,14.40
2012,08,12,07,08,14.50
2012,08,12,07,09,14.60
2012,08,12,07,10,14.70
2012,08,12,07,11,14.80
2012,08,12,07,12,14.80
2012,08,12,07,13,14.90
2012,08,12,07,14,14.90
2012,08,12,07,15,15.00
2012,08,12,07,16,15.00
2012,08,12,07,17,15.10
2012,08,12,07,18,15.10
2012,08,12,07,19,15.20
2012,08,12,07,20,15.20
2012,08,12,07,21,15.30
2012,08,12,07,22,15.30
2012,08,12,07,23,15.30
2012,08,12,07,24,15.40
2012,08,12,07,25,15.50
2012,08,12,07,26,15.50
2012,08,12,07,27,15.60
2012,08,12,07,28,15.60
2012,08,12,07,29,15.70
2012,08,12,07,30,15.70
2012,08,12,07,31,15.80
2012,08,12,07,32,15.80
2012,08,12,07,33,15.90
2012,08,12,07,34,16.00
2012,08,12,07,35,16.10
2012,08,12,07,36,16.10
2012,08,12,07,37,16.20
2012,08,12,07,38,16.30
2012,08,12,07,39,16.30
2012,08,12,07,40,16.40
2012,08,12,07,41,16.50
2012,08,12,07,42,16.70
2012,08,12,07,43,16.80
2012,08,12,07,44,16.90
2012,08,12,07,45,17.00
2012,08,12,07,46,17.10
2012,08,12,07,47,17.30
2012,08,12,07,48,17.30
2012,08,12,07,49,17.40
2012,08,12,07,50,17.50
2012,08,12,07,51,17.50
2012,08,12,07,52,17.60
2012,08,12,07,53,17.60
2012,08,12,07,54,17.60
2012,08,12,07,55,17.60
2012,08,12,07,56,17.70
2012,08,12,07,57,17.70
2012,08,12,07,58,17.70
2012,08,12,07,59,17.70
2012,08,12,08,00,17.80
2012,08,12,08,01,17.80
2012,08,12,08,02,17.90
2012,08,12,08,03,17.90
2012,08,12,08,04,17.90
2012,08,12,08,05,18.00
2012,08,12,08,06,18.10
2012,08,12,08,07,18.10
2012,08,12,08,08,18.10
2012,08,12,08,09,17.90
2012,08,12,08,10,17.90
2012,08,12,08,11,17.80
2012,08,12,08,12,17.80
2012,08,12,08,13,17.70
2012,08,12,08,14,17.70
2012,08,12,08,15,17.70
2012,08,12,08,16,17.70
2012,08,12,08,17,17.80
2012,08,12,08,18,17.80
2012,08,12,08,19,17.80
2012,08,12,08,20,17.90
2012,08,12,08,21,18.00
2012,08,12,08,22,18.10
2012,08,12,08,23,18.20
2012,08,12,08,24,18.20
2012,08,12,08,25,18.20
2012,08,12,08,26,18.30
2012,08,12,08,27,18.40
2012,08,12,08,28,18.50
2012,08,12,08,29,18.50
2012,08,12,08,30,18.50
2012,08,12,08,31,18.50
2012,08,12,08,32,18.40
2012,08,12,08,33,18.40
2012,08,12,08,34,18.40
2012,08,12,08,35,18.30
2012,08,12,08,36,18.30
2012,08,12,08,37,18.20
2012,08,12,08,38,18.10
2012,08,12,08,39,18.00
2012,08,12,08,40,17.90
2012,08,12,08,41,17.90
2012,08,12,08,42,17.90
2012,08,12,08,43,17.90
2012,08,12,08,44,17.90
2012,08,12,08,45,18.00
2012,08,12,08,46,18.10
2012,08,12,08,47,18.20
2012,08,12,08,48,18.30
2012,08,12,08,49,18.40
2012,08,12,08,50,18.50
2012,08,12,08,51,18.50
2012,08,12,08,52,18.60
2012,08,12,08,53,18.70
2012,08,12,08,54,18.80
2012,08,12,08,55,18.90
2012,08,12,08,56,18.90
2012,08,12,08,57,18.90
2012,08,12,08,58,18.90
2012,08,12,08,59,19.10
2012,08,12,09,00,19.10
2012,08,12,09,01,19.20
2012,08,12,09,02,19.30
2012,08,12,09,03,19.40
2012,08,12,09,04,19.50
2012,08,12,09,05,19.50
2012,08,12,09,06,19.50
2012,08,12,09,07,19.60
2012,08,12,09,08,19.70
2012,08,12,09,09,19.70
2012,08,12,09,10,19.80
2012,08,12,09,11,19.90
2012,08,12,09,12,19.90
2012,08,12,09,13,20.10
2012,08,12,09,14,20.20
2012,08,12,09,15,20.20
2012,08,12,09,16,20.40
2012,08,12,09,17,20.40
2012,08,12,09,18,20.50
2012,08,12,09,19,20.50
2012,08,12,09,20,20.50
2012,08,12,09,21,20.50
2012,08,12,09,22,20.50
2012,08,12,09,23,20.50
2012,08,12,09,24,20.50
2012,08,12,09,25,20.40
2012,08,12,09,26,20.40
2012,08,12,09,27,20.40
2012,08,12,09,28,20.30
2012,08,12,09,29,20.30
2012,08,12,09,30,20.30
2012,08,12,09,31,20.40
2012,08,12,09,32,20.50
2012,08,12,09,33,20.50
2012,08,12,09,34,20.50
2012,08,12,09,35,20.60
2012,08,12,09,36,20.60
2012,08,12,09,37,20.60
2012,08,12,09,38,20.70
2012,08,12,09,39,20.70
2012,08,12,09,40,20.60
2012,08,12,09,41,20.60
2012,08,12,09,42,20.50
2012,08,12,09,43,20.50
2012,08,12,09,44,20.40
2012,08,12,09,45,20.30
2012,08,12,09,46,20.30
2012,08,12,09,47,20.40
2012,08,12,09,48,20.40
2012,08,12,09,49,20.50
2012,08,12,09,50,20.50
2012,08,12,09,51,20.50
2012,08,12,09,52,20.40
2012,08,12,09,53,20.50
2012,08,12,09,54,20.50
2012,08,12,09,55,20.60
2012,08,12,09,56,20.70
2012,08,12,09,57,20.80
2012,08,12,09,58,20.90
2012,08,12,09,59,20.90
2012,08,12,10,00,20.90
2012,08,12,10,01,20.80
2012,08,12,10,02,20.80
2012,08,12,10,03,20.80
2012,08,12,10,04,20.80
2012,08,12,10,05,20.90
2012,08,12,10,06,20.90
2012,08,12,10,07,20.90
2012,08,12,10,08,20.90
2012,08,12,10,09,20.90
2012,08,12,10,10,20.90
2012,08,12,10,11,20.90
2012,08,12,10,12,21.00
2012,08,12,10,13,21.00
2012,08,12,10,14,21.00
2012,08,12,10,15,21.00
2012,08,12,10,16,21.00
2012,08,12,10,17,21.10
2012,08,12,10,18,21.20
2012,08,12,10,19,21.20
2012,08,12,10,20,21.20
2012,08,12,10,21,21.10
2012,08,12,10,22,21.10
2012,08,12,10,23,21.10
2012,08,12,10,24,21.10
2012,08,12,10,25,21.10
2012,08,12,10,26,21.10
2012,08,12,10,27,21.10
2012,08,12,10,28,21.20
2012,08,12,10,29,21.30
2012,08,12,10,30,21.30
2012,08,12,10,31,21.30
2012,08,12,10,32,21.40
2012,08,12,10,33,21.50
2012,08,12,10,34,21.60
2012,08,12,10,35,21.70
2012,08,12,10,36,21.80
2012,08,12,10,37,21.80
2012,08,12,10,38,21.80
2012,08,12,10,39,21.80
2012,08,12,10,40,21.70
2012,08,12,10,41,21.70
2012,08,12,10,42,21.60
2012,08,12,10,43,21.50
2012,08,12,10,44,21.40
2012,08,12,10,45,21.40
2012,08,12,10,46,21.50
2012,08,12,10,47,21.60
2012,08,12,10,48,21.60
2012,08,12,10,49,21.60
2012,08,12,10,50,21.70
2012,08,12,10,51,21.70
2012,08,12,10,52,21.80
2012,08,12,10,53,21.80
2012,08,12,10,54,21.80
2012,08,12,10,55,21.80
2012,08,12,10,56,21.90
2012,08,12,10,57,22.00
2012,08,12,10,58,22.00
2012,08,12,10,59,22.10
2012,08,12,11,00,22.20
2012,08,12,11,01,22.20
2012,08,12,11,02,22.30
2012,08,12,11,03,22.30
2012,08,12,11,04,22.20
2012,08,12,11,05,22.30
2012,08,12,11,06,22.40
2012,08,12,11,07,22.50
2012,08,12,11,08,22.60
2012,08,12,11,09,22.70
2012,08,12,11,10,22.60
2012,08,12,11,11,22.50
2012,08,12,11,12,22.30
2012,08,12,11,13,22.10
2012,08,12,11,14,22.00
2012,08,12,11,15,21.80
2012,08,12,11,16,21.80
2012,08,12,11,17,21.70
2012,08,12,11,18,21.70
2012,08,12,11,19,21.70
2012,08,12,11,20,21.70
2012,08,12,11,21,21.70
2012,08,12,11,22,21.80
2012,08,12,11,23,21.90
2012,08,12,11,24,21.90
2012,08,12,11,25,21.90
2012,08,12,11,26,21.80
2012,08,12,11,27,21.80
2012,08,12,11,28,21.80
2012,08,12,11,29,21.70
2012,08,12,11,30,21.70
2012,08,12,11,31,21.70
2012,08,12,11,32,21.80
2012,08,12,11,33,21.90
2012,08,12,11,34,21.90
2012,08,12,11,35,21.90
2012,08,12,11,36,21.90
2012,08,12,11,37,21.90
2012,08,12,11,38,21.90
2012,08,12,11,39,21.80
2012,08,12,11,40,21.80
2012,08,12,11,41,21.80
2012,08,12,11,42,21.90
2012,08,12,11,43,22.00
2012,08,12,11,44,22.10
2012,08,12,11,45,22.20
2012,08,12,11,46,22.30
2012,08,12,11,47,22.50
2012,08,12,11,48,22.50
2012,08,12,11,49,22.50
2012,08,12,11,50,22.50
2012,08,12,11,51,22.40
2012,08,12,11,52,22.40
2012,08,12,11,53,22.30
2012,08,12,11,54,22.30
2012,08,12,11,55,22.40
2012,08,12,11,56,22.50
2012,08,12,11,57,22.50
2012,08,12,11,58,22.50
2012,08,12,11,59,22.50
2012,08,12,12,00,22.40
2012,08,12,12,01,22.50
2012,08,12,12,02,22.50
2012,08,12,12,03,22.60
2012,08,12,12,04,22.60
2012,08,12,12,05,22.70
2012,08,12,12,06,22.70
2012,08,12,12,07,22.70
2012,08,12,12,08,22.70
2012,08,12,12,09,22.70
2012,08,12,12,10,22.70
2012,08,12,12,11,22.70
2012,08,12,12,12,22.80
2012,08,12,12,13,22.80
2012,08,12,12,14,22.90
2012,08,12,12,15,22.90
2012,08,12,12,16,22.90
2012,08,12,12,17,22.70
2012,08,12,12,18,22.70
2012,08,12,12,19,22.60
2012,08,12,12,20,22.60
2012,08,12,12,21,22.60
2012,08,12,12,22,22.60
2012,08,12,12,23,22.70
2012,08,12,12,24,22.70
2012,08,12,12,25,22.80
2012,08,12,12,26,22.90
2012,08,12,12,27,23.00
2012,08,12,12,28,23.10
2012,08,12,12,29,23.20
2012,08,12,12,30,23.30
2012,08,12,12,31,23.30
2012,08,12,12,32,23.40
2012,08,12,12,33,23.50
2012,08,12,12,34,23.60
2012,08,12,12,35,23.50
2012,08,12,12,36,23.40
2012,08,12,12,37,23.40
2012,08,12,12,38,23.30
2012,08,12,12,39,23.30
2012,08,12,12,40,23.20
2012,08,12,12,41,23.20
2012,08,12,12,42,23.10
2012,08,12,12,43,23.10
2012,08,12,12,44,23.10
2012,08,12,12,45,23.00
2012,08,12,12,46,22.90
2012,08,12,12,47,22.90
2012,08,12,12,48,22.90
2012,08,12,12,49,22.90
2012,08,12,12,50,22.90
2012,08,12,12,51,22.90
2012,08,12,12,52,22.90
2012,08,12,12,53,22.90
2012,08,12,12,54,22.90
2012,08,12,12,55,22.90
2012,08,12,12,56,22.90
2012,08,12,12,57,22.90
2012,08,12,12,58,22.90
2012,08,12,12,59,22.90
2012,08,12,13,00,22.90
2012,08,12,13,01,22.90
2012,08,12,13,02,22.90
2012,08,12,13,03,22.90
2012,08,12,13,04,22.80
2012,08,12,13,05,22.80
2012,08,12,13,06,22.80
2012,08,12,13,07,22.80
2012,08,12,13,08,22.80
2012,08,12,13,09,22.90
2012,08,12,13,10,22.90
2012,08,12,13,11,22.90
2012,08,12,13,12,22.90
2012,08,12,13,13,22.90
2012,08,12,13,14,22.90
2012,08,12,13,15,22.90
2012,08,12,13,16,22.90
2012,08,12,13,17,23.00
2012,08,12,13,18,22.90
2012,08,12,13,19,22.90
2012,08,12,13,20,22.90
2012,08,12,13,21,22.80
2012,08,12,13,22,22.80
2012,08,12,13,23,22.90
2012,08,12,13,24,23.00
2012,08,12,13,25,23.10
2012,08,12,13,26,23.20
2012,08,12,13,27,23.30
2012,08,12,13,28,23.40
2012,08,12,13,29,23.40
2012,08,12,13,30,23.30
2012,08,12,13,31,23.30
2012,08,12,13,32,23.30
2012,08,12,13,33,23.40
2012,08,12,13,34,23.40
2012,08,12,13,35,23.40
2012,08,12,13,36,23.40
2012,08,12,13,37,23.40
2012,08,12,13,38,23.40
2012,08,12,13,39,23.40
2012,08,12,13,40,23.40
2012,08,12,13,41,23.50
2012,08,12,13,42,23.60
2012,08,12,13,43,23.70
2012,08,12,13,44,23.70
2012,08,12,13,45,23.70
2012,08,12,13,46,23.70
2012,08,12,13,47,23.80
2012,08,12,13,48,23.80
2012,08,12,13,49,23.90
2012,08,12,13,50,24.00
2012,08,12,13,51,24.10
2012,08,12,13,52,24.10
2012,08,12,13,53,24.10
2012,08,12,13,54,24.20
2012,08,12,13,55,24.20
2012,08,12,13,56,24.20
2012,08,12,13,57,24.20
2012,08,12,13,58,24.10
2012,08,12,13,59,24.10
2012,08,12,14,00,24.10
2012,08,12,14,01,24.10
2012,08,12,14,02,24.10
2012,08,12,14,03,24.10
2012,08,12,14,04,24.20
2012,08,12,14,05,24.20
2012,08,12,14,06,24.20
2012,08,12,14,07,24.30
2012,08,12,14,08,24.30
2012,08,12,14,09,24.40
2012,08,12,14,10,24.50
2012,08,12,14,11,24.60
2012,08,12,14,12,24.60
2012,08,12,14,13,24.70
2012,08,12,14,14,24.60
2012,08,12,14,15,24.50
2012,08,12,14,16,24.50
2012,08,12,14,17,24.40
2012,08,12,14,18,24.40
2012,08,12,14,19,24.40
2012,08,12,14,20,24.40
2012,08,12,14,21,24.30
2012,08,12,14,22,24.30
2012,08,12,14,23,24.30
2012,08,12,14,24,24.30
2012,08,12,14,25,24.20
2012,08,12,14,26,24.20
2012,08,12,14,27,24.10
2012,08,12,14,28,24.10
2012,08,12,14,29,24.00
2012,08,12,14,30,23.90
2012,08,12,14,31,23.90
2012,08,12,14,32,24.00
2012,08,12,14,33,24.10
2012,08,12,14,34,24.10
2012,08,12,14,35,24.10
2012,08,12,14,36,24.10
2012,08,12,14,37,24.10
2012,08,12,14,38,24.10
2012,08,12,14,39,24.10
2012,08,12,14,40,24.10
2012,08,12,14,41,24.20
2012,08,12,14,42,24.20
2012,08,12,14,43,24.20
2012,08,12,14,44,24.20
2012,08,12,14,45,24.20
2012,08,12,14,46,24.20
2012,08,12,14,47,24.20
2012,08,12,14,48,24.20
2012,08,12,14,49,24.20
2012,08,12,14,50,24.20
2012,08,12,14,51,24.10
2012,08,12,14,52,24.10
2012,08,12,14,53,24.00
2012,08,12,14,54,23.90
2012,08,12,14,55,23.80
2012,08,12,14,56,23.90
2012,08,12,14,57,23.90
2012,08,12,14,58,23.90
2012,08,12,14,59,24.10
2012,08,12,15,00,24.10
2012,08,12,15,01,24.30
2012,08,12,15,02,24.40
2012,08,12,15,03,24.40
2012,08,12,15,04,24.30
2012,08,12,15,05,24.30
2012,08,12,15,06,24.40
2012,08,12,15,07,24.40
2012,08,12,15,08,24.40
2012,08,12,15,09,24.30
2012,08,12,15,10,24.30
2012,08,12,15,11,24.30
2012,08,12,15,12,24.20
2012,08,12,15,13,24.20
2012,08,12,15,14,24.20
2012,08,12,15,15,24.20
2012,08,12,15,16,24.30
2012,08,12,15,17,24.30
2012,08,12,15,18,24.30
2012,08,12,15,19,24.40
2012,08,12,15,20,24.40
2012,08,12,15,21,24.40
2012,08,12,15,22,24.40
2012,08,12,15,23,24.50
2012,08,12,15,24,24.50
2012,08,12,15,25,24.50
2012,08,12,15,26,24.60
2012,08,12,15,27,24.70
2012,08,12,15,28,24.80
2012,08,12,15,29,24.80
2012,08,12,15,30,24.80
2012,08,12,15,31,24.80
2012,08,12,15,32,24.80
2012,08,12,15,33,24.80
2012,08,12,15,34,24.80
2012,08,12,15,35,24.80
2012,08,12,15,36,24.80
2012,08,12,15,37,24.90
2012,08,12,15,38,24.90
2012,08,12,15,39,24.90
2012,08,12,15,40,25.00
2012,08,12,15,41,25.10
2012,08,12,15,42,25.20
2012,08,12,15,43,25.30
2012,08,12,15,44,25.40
2012,08,12,15,45,25.50
2012,08,12,15,46,25.60
2012,08,12,15,47,25.60
2012,08,12,15,48,25.60
2012,08,12,15,49,25.50
2012,08,12,15,50,25.60
2012,08,12,15,51,25.70
2012,08,12,15,52,25.80
2012,08,12,15,53,25.90
2012,08,12,15,54,25.90
2012,08,12,15,55,26.00
2012,08,12,15,56,26.00
2012,08,12,15,57,26.10
2012,08,12,15,58,26.10
2012,08,12,15,59,26.10
2012,08,12,16,00,26.10
2012,08,12,16,01,26.30
2012,08,12,16,02,26.30
2012,08,12,16,03,26.50
2012,08,12,16,04,26.60
2012,08,12,16,05,26.60
2012,08,12,16,06,26.60
2012,08,12,16,07,26.60
2012,08,12,16,08,26.60
2012,08,12,16,09,26.70
2012,08,12,16,10,26.70
2012,08,12,16,11,26.70
2012,08,12,16,12,26.80
2012,08,12,16,13,26.80
2012,08,12,16,14,26.80
2012,08,12,16,15,26.90
2012,08,12,16,16,27.00
2012,08,12,16,17,27.10
2012,08,12,16,18,27.10
2012,08,12,16,19,27.00
2012,08,12,16,20,26.90
2012,08,12,16,21,26.80
2012,08,12,16,22,26.70
2012,08,12,16,23,26.60
2012,08,12,16,24,26.60
2012,08,12,16,25,26.60
2012,08,12,16,26,26.60
2012,08,12,16,27,26.60
2012,08,12,16,28,26.80
2012,08,12,16,29,26.90
2012,08,12,16,30,27.00
2012,08,12,16,31,27.10
2012,08,12,16,32,27.20
2012,08,12,16,33,27.20
2012,08,12,16,34,27.10
2012,08,12,16,35,27.00
2012,08,12,16,36,26.90
2012,08,12,16,37,26.80
2012,08,12,16,38,26.80
2012,08,12,16,39,26.80
2012,08,12,16,40,26.90
2012,08,12,16,41,26.90
2012,08,12,16,42,27.00
2012,08,12,16,43,27.10
2012,08,12,16,44,27.10
2012,08,12,16,45,27.10
2012,08,12,16,46,27.10
2012,08,12,16,47,27.20
2012,08,12,16,48,27.30
2012,08,12,16,49,27.40
2012,08,12,16,50,27.40
2012,08,12,16,51,27.50
2012,08,12,16,52,27.70
2012,08,12,16,53,27.70
2012,08,12,16,54,27.80
2012,08,12,16,55,27.80
2012,08,12,16,56,27.80
2012,08,12,16,57,27.80
2012,08,12,16,58,27.80
2012,08,12,16,59,27.70
2012,08,12,17,00,27.60
2012,08,12,17,01,27.50
2012,08,12,17,02,27.30
2012,08,12,17,03,27.20
2012,08,12,17,04,27.00
2012,08,12,17,05,26.90
2012,08,12,17,06,26.70
2012,08,12,17,07,26.60
2012,08,12,17,08,26.60
2012,08,12,17,09,26.60
2012,08,12,17,10,26.60
2012,08,12,17,11,26.60
2012,08,12,17,12,26.60
2012,08,12,17,13,26.60
2012,08,12,17,14,26.60
2012,08,12,17,15,26.50
2012,08,12,17,16,26.40
2012,08,12,17,17,26.30
2012,08,12,17,18,26.30
2012,08,12,17,19,26.30